Tracking 19475 objects as of 18-Jan-2019
HD Live streaming from Space Station
objects crossing your sky now

COSMOS 858

Track COSMOS 858 now!
10-day predictions
COSMOS 858 is classified as:


NORAD ID: 9443
Int'l Code: 1976-098A
Perigee: 775.7 km
Apogee: 794.5 km
Inclination: 74.0 °
Period: 100.4 minutes
Semi major axis: 7156 km
RCS: 2.2223 m2 (large)
Launch date: September 29, 1976
Source: Commonwealth of Independent States (former USSR) (CIS)
Launch site: PLESETSK MISSILE AND SPACE COMPLEX (PKMTR)
aabbcc
Your satellite tracking list
Your tracking list is empty




NASA's NSSDC Master Catalog

Two Line Element Set (TLE):
1  9443U 76098A   19017.67630338  .00000019  00000-0  16022-4 0  9999
2  9443  74.0495  71.8714 0013141 142.7991 217.4074 14.34116336210811
Source of the keplerian elements: AFSPC